Weather History for Danville, IL

Change the Weather History Date:

Monday, March 11, 2013

  Actual Average (KLAF) Record (KLAF)
Temperature  
Mean Temperature 42 °F 39 °F  
Max Temperature 52 °F 48 °F 77 °F (1972)
Min Temperature 32 °F 30 °F 6 °F (1979)
Degree Days  
Heating Degree Days 23 26  
Month to date heating degree days 309  
Since 1 July heating degree days 4643  
Cooling Degree Days 0 0  
Month to date cooling degree days 0  
Year to date cooling degree days 0  
Moisture  
Dew Point 38 °F    
Average Humidity 91    
Maximum Humidity 95    
Minimum Humidity 87    
Precipitation  
Precipitation 0.04 in 0.08 in 1.22 in (1952)
Month to date precipitation 0.90  
Year to date precipitation 4.52  
Sea Level Pressure  
Sea Level Pressure 29.69 in    
Wind  
Wind Speed 14 mph (WSW)    
Max Wind Speed 23 mph    
Max Gust Speed 31 mph    
Visibility 7 miles    
Events Rain    
T = Trace of Precipitation, MM = Missing Value Source: NWS Daily Summary

Daily Weather History Graph

Daily Weather History Graph

Search for Another Location

Airport:

Trip Planner

Search our weather history database for the weather conditions in past years. The results will help you decide how hot, cold, wet, or windy it might be!

Date:

Astronomy

Mar. 11, 2013 Rise Set
Actual Time 7:07 AM CDT 6:53 PM CDT
Civil Twilight 6:40 AM CDT 7:20 PM CDT
Nautical Twilight 6:09 AM CDT 7:51 PM CDT
Astronomical Twilight 5:37 AM CDT 8:23 PM CDT
Moon 6:41 AM CDT (3/11) 7:05 PM CDT (3/11)
Length of Visible Light 12h 39m
Length of Day
11h 45m
Waning Crescent, 0% of the Moon is Illuminated
Mar 11
Waning Crescent
Mar 11
New
Mar 19
First Quarter
Mar 27
Full
Apr 2
Last Quarter

Hourly Weather History & Observations

Time (CDT) Temp. Windchill Dew Point Humidity Pressure Visibility Wind Dir Wind Speed Gust Speed Precip Events Conditions
12:15 AM 52.7 °F - 50.0 °F 91% 29.67 in 10.0 mi SSW 15.0 mph 19.6 mph N/A   Overcast
12:35 AM 52.3 °F - 49.5 °F 90% 29.67 in 10.0 mi SSW 15.0 mph - N/A   Overcast
12:55 AM 52.2 °F - 49.1 °F 89% 29.67 in 10.0 mi SSW 15.0 mph 21.9 mph N/A   Overcast
1:15 AM 51.8 °F - 48.6 °F 89% 29.67 in 10.0 mi SW 13.8 mph 21.9 mph N/A   Overcast
1:35 AM 51.3 °F - 47.8 °F 88% 29.67 in 10.0 mi SW 10.4 mph 15.0 mph N/A   Overcast
1:55 AM 50.9 °F - 48.2 °F 90% 29.67 in 10.0 mi SSW 10.4 mph - N/A   Overcast
2:15 AM 50.5 °F - 48.0 °F 91% 29.66 in 10.0 mi SSW 15.0 mph - N/A   Overcast
2:35 AM 50.4 °F - 47.3 °F 89% 29.65 in 10.0 mi SSW 11.5 mph - N/A   Overcast
2:55 AM 50.0 °F - 47.3 °F 90% 29.65 in 10.0 mi SSW 12.7 mph 16.1 mph N/A   Overcast
3:15 AM 50.0 °F - 46.9 °F 89% 29.65 in 10.0 mi SSW 10.4 mph - N/A   Overcast
3:35 AM 50.0 °F - 46.8 °F 89% 29.64 in 10.0 mi SSW 12.7 mph - N/A   Overcast
3:55 AM 49.3 °F - 46.8 °F 91% 29.63 in 7.0 mi SSW 8.1 mph - N/A Rain Light Rain
4:15 AM 49.1 °F - 46.8 °F 92% 29.62 in 7.0 mi SW 12.7 mph - N/A   Drizzle
4:35 AM 48.7 °F - 46.4 °F 92% 29.62 in 5.0 mi SSW 8.1 mph - N/A Rain Rain
4:55 AM 48.4 °F - 46.6 °F 93% 29.60 in 7.0 mi SSW 6.9 mph - N/A   Overcast
5:15 AM 48.2 °F - 46.4 °F 93% 29.62 in 4.0 mi SW 6.9 mph - N/A Rain Light Rain
5:35 AM 47.7 °F - 46.0 °F 94% 29.64 in 5.0 mi SW 11.5 mph - N/A   Drizzle
5:55 AM 46.8 °F - 44.8 °F 93% 29.64 in 3.0 mi SW 12.7 mph 17.3 mph 0.01 in Rain Rain
6:15 AM 45.5 °F 39.9 °F 43.5 °F 93% 29.64 in 5.0 mi WSW 11.5 mph - N/A   Drizzle
6:35 AM 44.6 °F 39.7 °F 43.0 °F 94% 29.64 in 4.0 mi WSW 9.2 mph - N/A   Drizzle
6:55 AM 44.2 °F 39.7 °F 42.8 °F 95% 29.63 in 3.0 mi WSW 8.1 mph - N/A   Drizzle
7:15 AM 44.1 °F 40.1 °F 42.8 °F 95% 29.63 in 3.0 mi West 6.9 mph - 0.01 in Rain Light Rain
7:35 AM 43.7 °F 38.6 °F 42.1 °F 94% 29.63 in 2.5 mi West 9.2 mph - 0.02 in   Drizzle
7:55 AM 42.8 °F 36.6 °F 41.0 °F 93% 29.64 in 3.0 mi West 11.5 mph 16.1 mph 0.02 in Rain Light Rain
8:15 AM 41.9 °F 36.3 °F 40.3 °F 94% 29.64 in 2.5 mi West 9.2 mph - N/A   Light Drizzle
8:35 AM 41.5 °F 35.0 °F 40.1 °F 95% 29.65 in 2.5 mi West 11.5 mph - N/A Rain Light Rain
8:55 AM 41.0 °F 34.7 °F 39.6 °F 95% 29.64 in 3.0 mi WSW 10.4 mph - 0.01 in   Light Drizzle
9:15 AM 40.5 °F 34.1 °F 38.5 °F 93% 29.64 in 7.0 mi WSW 10.4 mph - N/A   Overcast
9:35 AM 41.0 °F 34.3 °F 39.2 °F 93% 29.63 in 5.0 mi West 11.5 mph - N/A   Overcast
9:55 AM 40.1 °F 32.4 °F 37.9 °F 92% 29.63 in 4.0 mi West 13.8 mph 17.3 mph N/A   Overcast
10:15 AM 39.6 °F 30.6 °F 37.6 °F 93% 29.64 in 4.0 mi West 17.3 mph - N/A   Overcast
10:35 AM 39.2 °F 30.5 °F 36.9 °F 91% 29.65 in 5.0 mi West 16.1 mph 24.2 mph N/A Rain Light Rain
10:55 AM 38.7 °F 29.5 °F 36.9 °F 93% 29.65 in 3.0 mi WSW 17.3 mph - N/A Rain Light Rain
11:15 AM 38.7 °F 29.5 °F 35.8 °F 89% 29.65 in 7.0 mi WSW 17.3 mph - N/A   Overcast
11:35 AM 38.3 °F 28.7 °F 35.8 °F 91% 29.64 in 7.0 mi West 18.4 mph 21.9 mph N/A   Overcast
11:55 AM 37.4 °F 27.2 °F 34.9 °F 91% 29.65 in 5.0 mi West 19.6 mph 26.5 mph N/A   Overcast
12:15 PM 37.4 °F 28.2 °F 34.7 °F 90% 29.65 in 7.0 mi WSW 16.1 mph 25.3 mph N/A   Overcast
12:35 PM 36.7 °F 26.6 °F 34.0 °F 90% 29.65 in 5.0 mi WSW 18.4 mph 26.5 mph N/A   Overcast
12:55 PM 36.5 °F 27.0 °F 33.8 °F 90% 29.64 in 7.0 mi WSW 16.1 mph 23.0 mph N/A   Overcast
1:15 PM 36.5 °F 25.7 °F 33.4 °F 89% 29.64 in 7.0 mi WSW 20.7 mph - N/A   Overcast
1:35 PM 36.0 °F 26.0 °F 33.4 °F 91% 29.65 in 5.0 mi WSW 17.3 mph 24.2 mph N/A   Overcast
1:55 PM 35.8 °F 26.1 °F 33.6 °F 92% 29.65 in 4.0 mi WSW 16.1 mph 24.2 mph N/A   Light Drizzle
2:15 PM 35.2 °F 24.7 °F 32.5 °F 90% 29.65 in 7.0 mi SW 18.4 mph 26.5 mph N/A   Overcast
2:35 PM 35.6 °F 24.5 °F 32.4 °F 88% 29.66 in 7.0 mi WSW 20.7 mph 31.1 mph N/A   Overcast
2:55 PM 35.4 °F 24.3 °F 32.4 °F 89% 29.66 in 7.0 mi WSW 20.7 mph 29.9 mph N/A   Overcast
3:15 PM 35.1 °F 23.3 °F 32.2 °F 89% 29.67 in 7.0 mi WSW 23.0 mph 27.6 mph N/A   Overcast
3:35 PM 35.1 °F 24.1 °F 32.0 °F 89% 29.68 in 7.0 mi WSW 19.6 mph 26.5 mph N/A   Overcast
3:55 PM 34.9 °F 23.9 °F 32.0 °F 89% 29.68 in 7.0 mi WSW 19.6 mph 26.5 mph N/A   Overcast
4:15 PM 34.9 °F 24.9 °F 32.0 °F 89% 29.69 in 7.0 mi WSW 16.1 mph 27.6 mph N/A   Overcast
4:35 PM 34.9 °F 23.9 °F 32.0 °F 89% 29.69 in 10.0 mi WSW 19.6 mph - N/A   Overcast
4:55 PM 34.9 °F 23.9 °F 32.0 °F 89% 29.70 in 10.0 mi SW 19.6 mph 26.5 mph N/A   Overcast
5:15 PM 34.7 °F 22.8 °F 32.0 °F 90% 29.71 in 10.0 mi WSW 23.0 mph 29.9 mph N/A   Overcast
5:35 PM 34.5 °F 24.1 °F 32.0 °F 90% 29.72 in 5.0 mi WSW 17.3 mph 26.5 mph N/A   Overcast
5:55 PM 34.3 °F 24.6 °F 32.2 °F 92% 29.73 in 4.0 mi WSW 15.0 mph - N/A Rain Light Rain
6:15 PM 34.0 °F 23.4 °F 32.2 °F 93% 29.74 in 4.0 mi WSW 17.3 mph 23.0 mph N/A   Light Drizzle
6:35 PM 33.8 °F 23.2 °F 32.0 °F 93% 29.75 in 5.0 mi WSW 17.3 mph - N/A   Light Drizzle
6:55 PM 33.8 °F 23.5 °F 32.0 °F 93% 29.75 in 5.0 mi WSW 16.1 mph 23.0 mph N/A Rain Light Rain
7:15 PM 33.8 °F 23.5 °F 32.0 °F 93% 29.77 in 7.0 mi WSW 16.1 mph 23.0 mph N/A   Light Drizzle
7:35 PM 33.6 °F 23.3 °F 32.0 °F 94% 29.78 in 5.0 mi WSW 16.1 mph 26.5 mph N/A   Light Drizzle
7:55 PM 33.4 °F 23.5 °F 32.0 °F 94% 29.79 in 4.0 mi West 15.0 mph 23.0 mph N/A   Overcast
8:15 PM 33.3 °F 24.1 °F 31.8 °F 94% 29.80 in 7.0 mi West 12.7 mph 23.0 mph N/A   Overcast
8:35 PM 33.3 °F 22.1 °F 31.3 °F 92% 29.80 in 7.0 mi West 18.4 mph 26.5 mph N/A   Overcast
8:55 PM 33.3 °F 22.1 °F 30.9 °F 91% 29.81 in 10.0 mi West 18.4 mph 24.2 mph N/A   Overcast
9:15 PM 33.3 °F 22.1 °F 30.6 °F 90% 29.81 in 10.0 mi West 18.4 mph 21.9 mph N/A   Overcast
9:35 PM 33.4 °F 23.9 °F 30.2 °F 88% 29.82 in 10.0 mi West 13.8 mph - N/A   Overcast
9:55 PM 33.4 °F 23.9 °F 30.6 °F 89% 29.83 in 10.0 mi West 13.8 mph 18.4 mph N/A   Overcast
10:15 PM 33.3 °F 22.5 °F 30.0 °F 88% 29.83 in 10.0 mi WSW 17.3 mph 21.9 mph N/A   Overcast
10:35 PM 33.8 °F 22.8 °F 30.2 °F 87% 29.84 in 10.0 mi West 18.4 mph 21.9 mph N/A   Overcast
10:55 PM 33.1 °F 22.6 °F 29.8 °F 88% 29.85 in 10.0 mi West 16.1 mph 20.7 mph N/A   Overcast
11:15 PM 33.1 °F 23.0 °F 29.5 °F 87% 29.85 in 10.0 mi West 15.0 mph 23.0 mph N/A   Overcast
11:35 PM 32.9 °F 22.4 °F 29.7 °F 88% 29.86 in 10.0 mi West 16.1 mph 28.8 mph N/A   Overcast
11:55 PM 32.9 °F 22.4 °F 29.3 °F 87% 29.86 in 10.0 mi West 16.1 mph 26.5 mph N/A   Overcast